Hourly Weather Dzhyakovo

Today, 18 May, Tuesday

Time Temperature Precipitation Wind Pressure Humidity
00:00 +9°C° 0 mm 3 mps 749 mmHg 88%
01:00 +8°C° 0 mm 3 mps 750 mmHg 90%
02:00 +8°C° 0 mm 3 mps 750 mmHg 90%
03:00 +8°C° 0 mm 3 mps 750 mmHg 90%
04:00 +8°C° 0 mm 3 mps 750 mmHg 89%
05:00 +9°C° 0 mm 3 mps 751 mmHg 84%
06:00 +11°C° 0 mm 3 mps 751 mmHg 78%
07:00 +13°C° 0 mm 4 mps 752 mmHg 73%
08:00 +14°C° 0 mm 4 mps 752 mmHg 67%
09:00 +17°C° 0 mm 4 mps 752 mmHg 61%
10:00 +17°C° 0 mm 5 mps 752 mmHg 56%
11:00 +19°C° 0 mm 4 mps 752 mmHg 53%
12:00 +20°C° 0 mm 4 mps 752 mmHg 51%
13:00 +20°C° 0 mm 4 mps 752 mmHg 49%
14:00 +21°C° 0 mm 4 mps 752 mmHg 49%
15:00 +21°C° 0 mm 3 mps 752 mmHg 50%
16:00 +21°C° 0 mm 3 mps 751 mmHg 50%
17:00 +19°C° 0.1 mm 2 mps 751 mmHg 58%
18:00 +17°C° 0.1 mm 2 mps 751 mmHg 66%
19:00 +15°C° 0.1 mm 1 mps 751 mmHg 74%
20:00 +15°C° 0.2 mm 2 mps 751 mmHg 75%
21:00 +14°C° 0.2 mm 2 mps 751 mmHg 76%
22:00 +14°C° 0.2 mm 2 mps 752 mmHg 76%
23:00 +14°C° 0.4 mm 2 mps 751 mmHg 80%

Tomorrow, 19 May, Wednesday

Time Temperature Precipitation Wind Pressure Humidity
00:00 +13°C° 0.4 mm 2 mps 751 mmHg 83%
01:00 +13°C° 0.4 mm 1 mps 751 mmHg 86%
02:00 +13°C° 0.6 mm 1 mps 751 mmHg 88%
03:00 +12°C° 0.6 mm 1 mps 751 mmHg 90%
04:00 +12°C° 0.6 mm 1 mps 751 mmHg 92%
05:00 +12°C° 1.8 mm 1 mps 751 mmHg 93%
06:00 +12°C° 1.8 mm 1 mps 751 mmHg 94%
07:00 +12°C° 1.8 mm 1 mps 751 mmHg 95%
08:00 +13°C° 1.2 mm 1 mps 751 mmHg 93%
09:00 +13°C° 1.2 mm 1 mps 751 mmHg 91%
10:00 +13°C° 1.2 mm 1 mps 751 mmHg 89%
11:00 +13°C° 0.5 mm 1 mps 751 mmHg 89%
12:00 +13°C° 0.5 mm 2 mps 750 mmHg 89%
13:00 +13°C° 0.5 mm 2 mps 750 mmHg 88%
14:00 +12°C° 0.5 mm 3 mps 750 mmHg 90%
15:00 +11°C° 0.5 mm 4 mps 751 mmHg 92%
16:00 +11°C° 0.5 mm 4 mps 751 mmHg 94%
17:00 +10°C° 0.3 mm 4 mps 751 mmHg 94%
18:00 +9°C° 0.3 mm 5 mps 751 mmHg 94%
19:00 +9°C° 0.3 mm 5 mps 752 mmHg 95%
20:00 +9°C° 0.5 mm 5 mps 752 mmHg 94%
21:00 +8°C° 0.5 mm 5 mps 752 mmHg 94%
22:00 +8°C° 0.5 mm 4 mps 752 mmHg 94%
23:00 +8°C° 0.2 mm 5 mps 752 mmHg 93%

Day after tomorrow, 20 May, Thursday

Time Temperature Precipitation Wind Pressure Humidity
00:00 +8°C° 0.2 mm 5 mps 752 mmHg 92%
01:00 +8°C° 0.2 mm 5 mps 752 mmHg 92%
02:00 +8°C° 0.2 mm 6 mps 752 mmHg 90%
03:00 +8°C° 0.2 mm 6 mps 752 mmHg 89%
04:00 +8°C° 0.2 mm 6 mps 752 mmHg 88%
05:00 +8°C° 0.4 mm 6 mps 752 mmHg 89%
06:00 +8°C° 0.4 mm 6 mps 752 mmHg 90%
07:00 +8°C° 0.4 mm 6 mps 752 mmHg 91%
08:00 +8°C° 1.2 mm 6 mps 752 mmHg 91%
09:00 +8°C° 1.2 mm 7 mps 752 mmHg 91%
10:00 +8°C° 1.2 mm 7 mps 752 mmHg 91%
11:00 +9°C° 0.9 mm 7 mps 752 mmHg 91%
12:00 +9°C° 0.9 mm 7 mps 752 mmHg 90%
13:00 +9°C° 0.9 mm 7 mps 753 mmHg 90%
14:00 +9°C° 0.9 mm 7 mps 753 mmHg 90%
15:00 +9°C° 0.9 mm 8 mps 753 mmHg 91%
16:00 +9°C° 0.9 mm 8 mps 753 mmHg 91%
17:00 +9°C° 0.5 mm 7 mps 754 mmHg 91%
18:00 +9°C° 0.5 mm 6 mps 754 mmHg 91%
19:00 +9°C° 0.5 mm 5 mps 755 mmHg 91%
20:00 +9°C° 0.3 mm 5 mps 755 mmHg 91%
21:00 +10°C° 0.3 mm 4 mps 756 mmHg 92%
22:00 +10°C° 0.3 mm 3 mps 756 mmHg 93%
23:00 +10°C° 0.1 mm 4 mps 756 mmHg 93%

21 May, Friday

Time Temperature Precipitation Wind Pressure Humidity
00:00 +10°C° 0.1 mm 4 mps 756 mmHg 93%
01:00 +8°C° 0.1 mm 4 mps 756 mmHg 93%
02:00 +8°C° 0 mm 4 mps 756 mmHg 93%
03:00 +7°C° 0 mm 4 mps 756 mmHg 94%
04:00 +7°C° 0 mm 4 mps 756 mmHg 94%
05:00 +8°C° 0 mm 4 mps 757 mmHg 91%
06:00 +9°C° 0 mm 5 mps 757 mmHg 87%
07:00 +10°C° 0 mm 5 mps 757 mmHg 84%
08:00 +13°C° 0 mm 5 mps 757 mmHg 77%
09:00 +15°C° 0 mm 4 mps 757 mmHg 70%
10:00 +17°C° 0 mm 4 mps 757 mmHg 64%
11:00 +18°C° 0 mm 4 mps 757 mmHg 60%
12:00 +19°C° 0 mm 3 mps 757 mmHg 56%
13:00 +20°C° 0 mm 3 mps 756 mmHg 51%
14:00 +20°C° 0 mm 3 mps 756 mmHg 52%
15:00 +20°C° 0 mm 2 mps 756 mmHg 53%
16:00 +20°C° 0 mm 2 mps 755 mmHg 54%
17:00 +18°C° 0 mm 2 mps 755 mmHg 60%
18:00 +18°C° 0 mm 1 mps 755 mmHg 65%
19:00 +15°C° 0 mm 1 mps 755 mmHg 70%
20:00 +14°C° 0 mm 1 mps 755 mmHg 72%
21:00 +14°C° 0 mm 1 mps 755 mmHg 73%
22:00 +13°C° 0 mm 2 mps 755 mmHg 75%
23:00 +12°C° 0 mm 2 mps 755 mmHg 77%

22 May, Saturday

Time Temperature Precipitation Wind Pressure Humidity
00:00 +12°C° 0 mm 2 mps 755 mmHg 80%
01:00 +10°C° 0 mm 2 mps 755 mmHg 82%
02:00 +10°C° 0 mm 2 mps 754 mmHg 83%
03:00 +9°C° 0 mm 3 mps 754 mmHg 83%
04:00 +9°C° 0 mm 3 mps 754 mmHg 83%
05:00 +11°C° 0 mm 3 mps 754 mmHg 79%
06:00 +12°C° 0 mm 3 mps 754 mmHg 75%
07:00 +14°C° 0 mm 3 mps 754 mmHg 70%
08:00 +15°C° 0 mm 4 mps 754 mmHg 65%
09:00 +18°C° 0 mm 4 mps 754 mmHg 60%
10:00 +20°C° 0 mm 4 mps 754 mmHg 55%
11:00 +21°C° 0 mm 4 mps 753 mmHg 52%
12:00 +22°C° 0 mm 4 mps 753 mmHg 50%
13:00 +24°C° 0 mm 3 mps 753 mmHg 47%
14:00 +24°C° 0 mm 3 mps 753 mmHg 47%
15:00 +24°C° 0 mm 3 mps 752 mmHg 48%
16:00 +25°C° 0 mm 2 mps 752 mmHg 48%
17:00 +23°C° 0 mm 2 mps 752 mmHg 56%
18:00 +20°C° 0 mm 2 mps 752 mmHg 64%
19:00 +18°C° 0 mm 3 mps 752 mmHg 72%
20:00 +17°C° 0 mm 2 mps 753 mmHg 72%
21:00 +16°C° 0 mm 2 mps 753 mmHg 72%
22:00 +16°C° 0 mm 2 mps 753 mmHg 72%
23:00 +15°C° 0 mm 2 mps 754 mmHg 72%

23 May, Sunday

Time Temperature Precipitation Wind Pressure Humidity
00:00 +14°C° 0 mm 2 mps 754 mmHg 72%
01:00 +14°C° 0 mm 2 mps 754 mmHg 73%
02:00 +13°C° 0 mm 2 mps 754 mmHg 78%
03:00 +12°C° 0 mm 2 mps 755 mmHg 84%
04:00 +10°C° 0 mm 2 mps 755 mmHg 89%
05:00 +13°C° 0 mm 2 mps 755 mmHg 86%
06:00 +14°C° 0 mm 2 mps 755 mmHg 82%
07:00 +15°C° 0 mm 1 mps 756 mmHg 78%
08:00 +17°C° 0 mm 2 mps 756 mmHg 73%
09:00 +19°C° 0 mm 2 mps 755 mmHg 67%
10:00 +20°C° 0 mm 2 mps 755 mmHg 62%
11:00 +21°C° 0 mm 2 mps 755 mmHg 59%
12:00 +22°C° 0 mm 3 mps 754 mmHg 57%
13:00 +25°C° 0 mm 3 mps 754 mmHg 54%
14:00 +25°C° 0 mm 3 mps 753 mmHg 55%
15:00 +25°C° 0 mm 3 mps 753 mmHg 56%
16:00 +25°C° 0 mm 3 mps 752 mmHg 58%
17:00 +24°C° 0 mm 3 mps 752 mmHg 64%
18:00 +23°C° 0 mm 2 mps 752 mmHg 71%
19:00 +21°C° 0 mm 1 mps 751 mmHg 77%
20:00 +20°C° 0 mm 2 mps 751 mmHg 80%
21:00 +19°C° 0 mm 2 mps 752 mmHg 82%
22:00 +19°C° 0 mm 3 mps 752 mmHg 84%
23:00 +18°C° 0 mm 3 mps 752 mmHg 84%
Show more